COSMOS 1275 DEB, 13053

Orbit data source: Space-Track

COSMOS 1275 DEB, 13053 is space debris in LEO originally from a launch on Thu, 04 Jun 1981 UTC launched from the Plesetsk Missile And Space Complex (PKMTR). Debris objects in space refer to the collection of defunct objects orbiting the Earth. Examples of debris include non-operational satellites, rocket bodies, and fragments generated from explosions, collisions, or faulty payload assembly.

Loading next visibility...
Identifier
13053, 1981-053EY
Orbit
LEO
Country
Flag of CISCIS
Related business
Manufacturer
Unknown
Mission
Spacecraft
Bus & Motor
Unknown
Mass
Unknown
Launch date (UTC)
1981-06-04 (45 years ago)
Launch vehicle
Unknown
Launch site
Plesetsk Missile And Space Complex (PKMTR)
Object type
Payload
Rocket body
Debris
Shape & HBR
Unknown shape, 0.1 m
Radar Cross Section
Small (<0.1 m²)

Expand to show TLE details & history
Last TLE update: 1 day ago

TLE from 1 day ago
0 COSMOS 1275 DEB
1 13053U 81053EY  25348.83397316  .00001251  00000-0  13039-2 0  9998
2 13053  83.0755 192.4783 0117020 238.9876 140.9115 13.71758638198233
Epoch: 2025-12-14T20:00Z
TLE epoch observation values (Epoch: 2025-12-14T20:00:55.281Z)
Latitude
20.58208°
Longitude
171.10724°
Altitude
1,063.168 km
Speed
7.289 km/s
True Right ascension
13h 00m 18s
True Declination
20° 28' 26"
Sunlit
Object was in daylight at epoch
Visualization orbit readout
Latitude
Unknown
Longitude
Unknown
Altitude
Unknown
Speed
Unknown
Apparent Right ascension
Unknown
Apparent Declination
Unknown
Sunlit
N/A
Visualization observer readout
Local Sidereal Time
19:03:10
Azimuth
Unknown
Elevation
Unknown
Doppler factor
Unknown
Orbital elements
Apogee altitude
1,076.638 km
Perigee altitude
904.185 km
Semi-major axis
7,368.549 km
Eccentricity
0.0117
Inclination
83.0755°
RAAN
192.4783°
Arg. of periapsis
238.9876°
True anomaly
141.74747°
Mean anomaly
140.9115°
Eccentric anomaly
141.33043°
Mean motion
3.43139 °/min
Orbital period
104.91 mins
BSTAR
0.0013039
Loading maneuver chart data...
Computing Atmospheric mass density...
Loading historical data...
Loading historical data...
Loading historical data...
Loading historical data...
Loading historical data...
Loading historical data...
Loading historical data...

Documentation

Showing up to 5 results
|